Wind_Speed
8 9 8 8 7 8 8 9 9 10 10 11 12 13 14 16 16 17 17 16 16 16 16 16 15 15 15 15 15 15 14 14 14 13 14 14 13 13 13 13 13 13
9 10 9 9 8 8 7 7 8 9 9 10 10 11 12 13 14 15 16 16 16 16 16 16 15 15 15 15 16 16 15 14 14 14 14 13 13 13 13 13 13 13
9 10 11 10 9 8 7 7 7 7 8 8 9 9 10 11 12 13 14 15 15 15 15 16 16 16 16 16 17 16 16 15 15 15 15 15 15 15 15 15 14 14
8 10 11 12 11 10 9 8 7 7 6 7 8 8 9 9 10 11 13 14 15 15 15 16 16 16 16 17 17 17 16 17 17 17 17 17 17 17 17 17 17 16
9 10 11 13 14 13 11 10 9 8 7 7 7 7 8 9 9 10 11 12 13 14 15 15 15 15 16 16 17 17 17 17 18 18 18 19 19 19 19 18 18 18
8 10 11 13 15 15 14 12 11 9 9 8 7 7 8 8 9 10 10 11 12 13 14 15 15 15 15 15 16 16 16 17 17 18 18 19 19 19 19 19 19 19
9 11 12 13 14 15 16 15 13 11 10 9 9 9 8 9 9 10 10 11 11 12 13 14 14 15 15 15 15 16 16 17 17 17 18 18 19 19 19 19 19 19
11 13 16 16 16 16 17 17 16 14 12 11 10 10 10 10 10 10 11 11 11 11 11 12 13 14 14 14 14 15 15 16 16 17 18 18 19 19 19 19 19 19
14 14 17 19 20 20 19 18 17 17 15 13 12 11 11 11 11 11 12 12 11 11 11 11 12 12 13 14 14 14 14 15 16 16 17 18 18 19 19 19 19 19
18 16 16 19 22 24 23 20 18 18 17 16 14 13 12 12 12 12 13 13 13 13 12 12 11 11 12 13 13 13 13 14 15 15 16 17 18 18 18 19 19 19
20 20 19 20 22 25 26 23 19 18 18 18 17 16 15 15 14 14 15 15 14 14 14 13 12 12 12 12 12 12 12 13 14 15 15 16 16 16 17 17 18 18
20 24 25 24 23 25 27 27 24 21 20 20 19 19 18 18 17 16 16 16 15 14 14 13 13 13 12 12 12 12 11 11 12 13 14 14 14 14 15 15 15 16
24 26 27 25 24 25 27 29 30 28 25 23 22 21 21 21 20 19 18 17 16 14 14 13 12 12 12 12 12 12 11 10 11 12 12 12 12 12 12 13 13 13
24 26 27 27 29 31 31 31 32 32 30 27 24 24 24 23 22 21 20 19 18 17 15 14 13 12 11 12 12 11 11 10 9 9 10 10 10 10 9 9 10 9
24 28 31 32 34 35 35 33 32 33 33 30 28 28 27 26 24 22 21 20 20 19 17 16 15 14 12 12 11 11 10 9 8 8 7 7 7 7 7 6 6 6
31 34 36 36 36 36 36 35 34 34 34 34 33 31 29 28 26 23 21 20 20 20 18 16 15 14 13 12 11 11 11 10 8 7 6 5 5 4 4 3 3 3
37 38 39 38 38 38 38 38 37 35 35 36 36 33 30 30 30 27 23 21 21 21 20 17 15 13 13 13 12 11 12 11 10 8 6 5 4 3 3 3 2 2
43 44 44 43 42 41 40 39 39 37 36 36 37 35 32 32 32 31 28 25 24 23 21 18 16 14 14 14 13 13 13 13 13 11 9 7 6 6 5 5 5 5
44 47 47 46 44 44 42 41 41 40 38 37 36 35 34 33 32 31 30 29 28 26 23 21 18 15 14 14 15 15 15 15 15 15 13 10 8 8 7 8 8 7
44 46 49 48 45 44 43 43 44 43 40 38 38 37 36 35 33 31 30 30 30 29 26 24 22 18 15 14 15 16 16 16 16 15 15 12 10 9 9 9 10 10
50 49 50 51 48 44 44 45 46 45 42 40 40 40 39 38 36 33 32 32 32 31 29 28 26 21 17 16 15 17 18 18 16 15 14 13 11 10 10 10 11 11
59 56 53 52 51 48 45 45 46 47 45 43 42 42 42 42 40 38 36 35 34 33 32 31 29 26 22 20 18 17 18 19 18 17 16 15 15 14 13 12 12 13
63 62 60 58 56 53 50 47 47 48 47 46 45 44 44 45 44 41 39 37 35 34 34 32 31 29 27 25 22 20 19 19 20 20 19 19 18 18 18 17 16 15
65 64 63 62 60 60 58 54 51 50 48 46 45 45 46 47 46 43 41 38 37 36 36 35 33 31 29 27 25 25 24 23 22 23 23 22 19 18 19 20 19 18
68 67 65 64 64 63 63 61 58 56 54 51 48 47 48 49 49 46 43 41 40 39 39 39 37 34 30 28 27 27 28 28 27 27 27 25 21 19 20 21 22 21
71 69 68 67 67 66 66 65 63 62 61 59 55 51 50 51 52 50 47 45 44 43 42 42 41 37 34 32 30 29 30 32 32 33 32 29 26 25 24 23 22 22
Wind_Direction
360 5 12 18 24 30 37 42 43 44 43 41 40 39 39 39 39 39 39 40 43 45 49 51 51 52 53 54 54 54 54 54 53 51 50 48 48 48 48 47 45 44
348 354 360 2 6 11 17 23 28 31 34 34 34 34 34 33 34 34 34 34 36 38 41 43 43 44 45 46 47 48 48 48 47 47 47 45 43 42 42 41 40 40
337 346 352 352 352 356 359 2 9 14 19 23 24 25 26 26 27 27 27 28 30 31 33 35 36 36 37 38 39 40 41 41 41 42 43 43 42 40 39 39 38 37
328 337 345 347 345 345 345 345 348 352 357 3 8 11 12 15 17 18 19 21 23 24 25 28 29 31 32 33 34 34 34 35 36 38 40 41 43 42 42 41 41 40
316 326 334 339 340 340 340 338 335 333 334 340 347 353 356 360 3 7 10 12 14 16 18 20 22 25 27 30 32 31 30 31 33 35 38 40 41 43 44 44 43 43
295 309 321 329 333 336 337 336 331 325 323 323 325 331 338 344 349 353 358 1 4 7 9 11 14 18 21 24 27 28 27 28 30 33 36 38 40 42 44 45 45 45
287 298 312 320 323 328 332 333 329 323 319 315 314 316 320 326 332 339 344 349 353 356 359 2 5 8 13 18 22 24 23 23 26 29 33 36 38 40 43 45 46 47
300 301 308 313 316 320 324 325 323 320 316 311 308 307 307 310 316 322 329 334 339 344 348 353 356 358 3 9 15 19 19 18 21 25 29 33 36 38 40 43 45 47
301 302 304 306 307 309 312 314 315 314 312 306 303 301 298 298 301 307 314 320 326 331 335 341 346 349 353 359 7 13 15 15 17 20 25 29 33 35 37 41 43 46
293 296 296 296 297 298 300 302 306 307 306 302 298 295 292 291 291 294 300 306 314 320 325 330 335 340 345 350 358 8 11 12 13 17 22 27 31 32 35 38 41 45
289 287 288 287 288 290 291 292 294 298 298 296 294 291 289 287 287 289 293 298 305 313 319 324 328 333 339 344 351 1 8 9 10 14 19 24 29 31 32 36 39 43
264 270 281 283 281 283 285 284 284 286 288 288 289 290 289 289 289 290 291 296 302 309 315 320 325 328 333 338 345 353 2 7 8 10 15 20 27 30 32 35 39 43
248 264 274 275 274 276 278 278 278 279 282 284 288 292 292 292 292 293 295 301 306 310 315 317 321 326 329 333 338 345 354 1 4 6 9 15 21 27 32 35 39 43
253 258 258 263 270 273 272 271 271 274 278 281 285 289 291 290 291 293 296 303 310 313 317 320 321 324 327 329 332 336 343 350 355 359 2 7 13 19 26 33 38 43
239 240 247 258 266 268 269 267 265 268 274 277 279 284 287 286 286 289 293 298 304 307 311 317 320 321 321 322 322 324 328 335 340 345 350 355 1 7 14 23 32 38
233 243 253 259 261 263 266 265 261 263 270 274 277 280 285 285 283 284 288 294 299 302 303 309 315 317 315 313 312 311 310 314 321 325 327 330 336 343 350 358 9 20
242 252 257 258 260 263 263 261 259 259 264 272 275 277 281 283 281 279 282 288 294 298 300 303 307 310 311 308 304 301 300 299 303 307 305 302 298 293 288 285 282 274
248 252 255 257 261 262 260 258 257 256 259 267 272 273 276 278 277 276 277 281 286 291 295 296 296 298 305 306 300 295 293 291 291 292 292 286 277 268 263 257 252 246
249 249 252 255 259 260 257 255 254 252 255 262 267 269 271 272 272 272 273 276 280 284 288 288 286 288 295 300 299 292 286 284 281 281 281 280 274 266 259 255 251 248
251 252 252 253 257 257 253 251 252 250 252 258 262 264 266 266 265 265 267 269 273 276 280 280 280 281 282 286 290 288 281 276 273 272 272 272 271 267 262 259 256 253
248 252 253 251 252 252 249 248 250 249 251 255 257 259 262 262 261 260 261 265 267 268 270 272 273 275 274 273 277 282 280 276 273 272 272 273 274 271 268 265 262 259
245 248 250 250 249 248 247 247 248 247 248 251 253 255 259 260 259 259 260 263 265 264 263 264 266 268 271 270 269 273 279 280 278 276 274 273 274 274 272 268 265 263
246 246 248 249 248 247 247 248 249 247 246 249 250 252 255 256 257 258 259 260 262 262 262 263 262 262 265 270 269 267 270 275 277 276 273 268 266 266 268 267 264 261
246 246 247 247 246 246 247 248 250 248 246 248 250 252 254 254 254 255 256 256 257 259 262 264 262 260 260 264 266 263 262 264 268 271 272 271 268 265 264 266 265 262
246 245 246 246 245 246 246 248 249 249 248 249 251 253 254 252 251 253 253 253 255 259 263 264 263 261 259 259 260 259 257 259 262 264 266 269 272 271 266 264 264 263
245 245 245 245 245 246 246 247 249 249 250 250 251 253 253 250 249 250 250 251 255 259 263 263 262 260 258 258 258 256 251 251 256 260 262 265 269 270 267 263 262 264
Height
11031 11031 11031 11031 11030 11030 11030 11030 11029 11029 11028 11027 11027 11026 11025 11025 11024 11024 11023 11022 11022 11021 11020 11020 11019 11018 11017 11017 11016 11015 11014 11014 11014 11013 11013 11013 11013 11013 11013 11013 11012 11012
11031 11031 11032 11032 11031 11031 11031 11031 11030 11030 11030 11029 11028 11028 11027 11027 11026 11025 11025 11024 11024 11023 11023 11022 11021 11020 11019 11019 11018 11017 11016 11016 11015 11015 11015 11015 11014 11014 11014 11014 11013 11013
11031 11032 11032 11032 11032 11032 11032 11032 11032 11031 11031 11031 11030 11029 11029 11028 11028 11027 11027 11026 11025 11025 11024 11024 11023 11022 11021 11021 11020 11019 11018 11018 11017 11017 11016 11016 11016 11015 11015 11015 11014 11013
11032 11032 11032 11033 11033 11033 11033 11033 11032 11032 11032 11032 11032 11031 11031 11030 11030 11029 11028 11028 11027 11026 11025 11025 11024 11024 11023 11023 11022 11021 11020 11020 11019 11019 11018 11018 11017 11017 11016 11015 11015 11014
11032 11033 11033 11033 11033 11033 11033 11033 11033 11033 11033 11033 11033 11033 11032 11032 11031 11031 11030 11029 11029 11028 11027 11027 11026 11026 11025 11025 11024 11023 11022 11022 11021 11020 11020 11019 11018 11018 11017 11016 11015 11015
11032 11033 11033 11034 11034 11034 11034 11034 11034 11034 11034 11034 11034 11034 11034 11033 11033 11032 11032 11031 11031 11030 11030 11029 11028 11028 11027 11026 11026 11025 11024 11023 11022 11022 11021 11020 11020 11019 11018 11017 11016 11015
11032 11032 11033 11034 11034 11034 11035 11035 11035 11034 11034 11034 11034 11035 11035 11035 11034 11034 11034 11033 11033 11032 11031 11031 11030 11029 11029 11028 11027 11027 11025 11025 11024 11024 11023 11022 11021 11020 11019 11018 11018 11017
11031 11032 11033 11034 11034 11035 11035 11035 11036 11035 11035 11035 11035 11035 11035 11035 11036 11035 11035 11035 11034 11034 11033 11032 11032 11031 11030 11030 11029 11028 11027 11027 11026 11025 11025 11024 11023 11022 11021 11020 11019 11018
11031 11032 11033 11034 11034 11035 11035 11035 11036 11036 11036 11036 11035 11035 11035 11036 11036 11036 11036 11036 11035 11035 11034 11034 11033 11032 11032 11031 11031 11030 11029 11029 11028 11028 11027 11026 11025 11024 11023 11022 11021 11020
11028 11030 11032 11033 11034 11034 11035 11035 11035 11036 11036 11036 11035 11035 11035 11035 11035 11035 11035 11035 11035 11035 11035 11035 11034 11034 11033 11033 11033 11032 11031 11031 11030 11030 11029 11029 11028 11027 11026 11025 11024 11023
11024 11025 11028 11032 11033 11034 11034 11035 11035 11035 11035 11035 11035 11035 11034 11034 11034 11034 11035 11035 11035 11035 11035 11035 11035 11035 11034 11034 11034 11034 11033 11033 11032 11032 11031 11031 11030 11029 11028 11027 11026 11025
11021 11021 11024 11029 11032 11033 11033 11033 11034 11034 11034 11034 11034 11034 11034 11033 11033 11033 11033 11034 11034 11035 11035 11035 11035 11035 11035 11035 11035 11035 11035 11034 11034 11033 11033 11033 11032 11031 11030 11029 11028 11028
11020 11022 11025 11027 11029 11031 11032 11032 11032 11032 11033 11033 11032 11033 11033 11033 11033 11033 11033 11033 11034 11034 11035 11035 11036 11036 11036 11036 11036 11036 11036 11036 11035 11035 11034 11034 11033 11033 11032 11031 11030 11030
11022 11027 11028 11027 11027 11028 11030 11030 11031 11031 11032 11032 11032 11031 11032 11032 11033 11032 11032 11033 11033 11034 11035 11036 11036 11036 11036 11036 11036 11036 11036 11036 11035 11035 11035 11035 11034 11034 11033 11032 11032 11031
11022 11026 11026 11025 11024 11025 11027 11028 11029 11030 11030 11031 11031 11030 11030 11031 11032 11032 11032 11033 11033 11034 11035 11035 11036 11036 11036 11036 11036 11036 11036 11036 11035 11035 11035 11034 11034 11034 11033 11033 11032 11032
11018 11020 11021 11022 11022 11022 11024 11026 11026 11027 11028 11029 11029 11030 11030 11030 11031 11032 11032 11032 11032 11032 11033 11034 11035 11036 11036 11035 11035 11035 11034 11034 11034 11034 11034 11034 11034 11033 11033 11033 11032 11032
11016 11017 11016 11018 11018 11019 11021 11023 11023 11024 11026 11026 11027 11028 11028 11028 11029 11030 11030 11030 11031 11031 11032 11033 11034 11035 11035 11034 11034 11034 11033 11033 11033 11033 11033 11033 11033 11033 11032 11032 11031 11031
11015 11015 11013 11013 11015 11016 11017 11018 11019 11021 11022 11024 11025 11025 11025 11026 11026 11027 11028 11029 11029 11030 11030 11031 11032 11033 11033 11033 11033 11033 11032 11031 11031 11031 11031 11032 11032 11032 11031 11031 11030 11030
11011 11010 11008 11009 11010 11011 11013 11014 11015 11017 11019 11020 11021 11022 11022 11023 11023 11025 11025 11026 11027 11028 11028 11029 11030 11031 11031 11032 11032 11031 11031 11030 11029 11028 11029 11029 11030 11031 11031 11030 11030 11029
11007 11005 11004 11004 11005 11007 11008 11010 11011 11013 11015 11016 11017 11018 11019 11019 11020 11021 11022 11023 11024 11025 11026 11026 11027 11029 11029 11029 11029 11029 11029 11028 11027 11027 11026 11027 11028 11029 11030 11030 11029 11029
11001 11000 10999 10999 11001 11002 11004 11006 11007 11008 11010 11012 11013 11014 11014 11015 11017 11017 11018 11019 11020 11021 11022 11023 11024 11026 11026 11026 11026 11026 11026 11026 11026 11026 11026 11026 11027 11028 11028 11029 11028 11028
10992 10993 10994 10994 10996 10998 10999 11001 11002 11004 11005 11007 11008 11009 11010 11011 11013 11014 11015 11015 11016 11017 11018 11020 11021 11022 11023 11023 11024 11024 11024 11023 11024 11024 11023 11023 11023 11024 11025 11026 11026 11026
10985 10987 10988 10989 10991 10993 10994 10996 10997 10999 11001 11002 11003 11004 11005 11006 11008 11009 11010 11011 11012 11012 11013 11015 11017 11019 11019 11019 11021 11022 11022 11021 11021 11020 11020 11019 11019 11019 11020 11020 11021 11021
10977 10979 10981 10983 10985 10986 10988 10990 10991 10993 10995 10997 10998 11000 11001 11002 11003 11004 11005 11006 11007 11008 11008 11010 11012 11014 11015 11016 11017 11018 11018 11019 11018 11018 11016 11016 11016 11017 11017 11017 11017 11017
10968 10971 10973 10975 10977 10979 10981 10983 10985 10987 10989 10991 10993 10994 10995 10996 10997 10998 11000 11001 11002 11003 11003 11004 11006 11009 11011 11012 11013 11014 11014 11015 11015 11015 11014 11013 11013 11014 11014 11014 11014 11014
10960 10963 10965 10967 10969 10972 10974 10976 10978 10981 10983 10984 10986 10988 10990 10991 10992 10993 10994 10995 10997 10998 10998 10998 11000 11003 11005 11006 11007 11009 11010 11011 11011 11010 11010 11010 11011 11010 11010 11010 11011 11011